Header for Extended Forecast Station List Page

Search by: ID | Name | Date | Parm | Value | Avg | % Avg
Sort by: ID | Name | Date | Parm | Value | Avg | % Avg

Enter search or view all records.

Click on id for station plot
#IDNameDateParmValueAvg% Avg
0NACW1NACHES-NEAR NACHES08-08-2022DISCHARGE (KAF)5719929
1RIDI1WILLOW CREEK-RIRIE DAM08-08-2022INFLOW (KAF)3748
2MAGI1BIG WOOD-MAGIC DAM08-08-2022INFLOW (KAF)152463
3BERO3MALHEUR-AGENCY VALLEY DAM08-08-2022INFLOW (KAF)81263
4PARW1YAKIMA-NEAR PARKER08-08-2022DISCHARGE (KAF)18624277
5MACI1BIG LOST-MACKAY RESERVOIR NEAR MACKAY08-08-2022INFLOW (KAF)344477
6EASW1YAKIMA-AT EASTON08-08-2022DISCHARGE (KAF)556981
7BIGI1BOISE-AT GLENWOOD BRIDGE08-08-2022DISCHARGE (KAF)9611882
8BONM8BLACKFOOT-NEAR BONNER08-08-2022DISCHARGE (KAF)12514785
9COEI1COEUR D ALENE-COEUR D ALENE LAKE08-08-2022INFLOW (KAF)23828185
10SATI1ST MARIES-NEAR SANTA08-08-2022DISCHARGE (KAF)151785
11TRYO3GRANDE RONDE-TROY08-08-2022DISCHARGE (KAF)15217885
12BITM8BITTERROOT-NEAR MISSOULA08-08-2022DISCHARGE (KAF)17620486
13HWRI1BIG LOST-AT HOWELL RANCH NEAR CHILLY08-08-2022DISCHARGE (KAF)232686
14JKSW4SNAKE-NEAR JACKSON08-08-2022DISCHARGE (KAF)54262487
15HALI1BIG WOOD-AT HAILEY08-08-2022DISCHARGE (KAF)374287
16DEDI1DEADWOOD-NEAR LOWMAN08-08-2022INFLOW (KAF)151787
17DWRI1NF CLEARWATER-DWORSHAK DAM08-08-2022INFLOW (KAF)30234887
18ALPW4SNAKE-NEAR ALPINE08-08-2022DISCHARGE (KAF)64673588
19BELM8CLARK FORK-BELOW MISSOULA08-08-2022DISCHARGE (KAF)49054490
20PLDI1SF SNAKE-PALISADES DAM08-08-2022INFLOW (KAF)897100290
21PARI1BOISE-NEAR PARMA08-08-2022DISCHARGE (KAF)18320490
22SRGM8CLARK FORK-AT ST REGIS08-08-2022DISCHARGE (KAF)64070291
23KIOW1YAKIMA-AT KIONA08-08-2022DISCHARGE (KAF)45249791
24MILI1SNAKE-AT MILNER08-08-2022DISCHARGE (KAF)364091
25HOTI1BRUNEAU-NEAR HOT SPRINGS08-08-2022DISCHARGE (KAF)151691
26KERM8FLATHEAD-SELI’Š KSANKA QLISPE’ DAM08-08-2022INFLOW (KAF)1179125994
27ABOM8CLARK FORK-ABOVE MISSOULA08-08-2022DISCHARGE (KAF)31333095
28OWYO3OWYHEE-OWYHEE DAM08-08-2022INFLOW (KAF)596295
29CHEI1FALL RIVER-NEAR CHESTER08-08-2022DISCHARGE (KAF)10410996
30ANTI1HENRYS FORK-AT ST. ANTHONY08-08-2022DISCHARGE (KAF)30431796
31HEII1SNAKE-NEAR HEISE08-08-2022DISCHARGE (KAF)1215126496
32LUCI1BOISE-LUCKY PEAK DAM08-08-2022INFLOW (KAF)21422396
33ORFI1CLEARWATER-AT OROFINO08-08-2022DISCHARGE (KAF)45046896
34LAUW1KETTLE-AT LAURIER08-08-2022DISCHARGE (KAF)10010397
35TEAI1TETON-NEAR ST. ANTHONY08-08-2022DISCHARGE (KAF)12913397
36SPOW1SPOKANE-AT SPOKANE08-08-2022DISCHARGE (KAF)46347598
37PRWW1COLUMBIA-PRIEST RAPIDS DAM08-08-2022INFLOW (KAF)205392090398
38WHBI1SALMON-AT WHITEBIRD08-08-2022DISCHARGE (KAF)1031105498
39STRM8ST. REGIS-NEAR ST. REGIS08-08-2022DISCHARGE (KAF)272799
40CIBW1COLUMBIA-AT INTL BOUNDARY08-08-2022DISCHARGE (KAF)192701955799
41WELW1COLUMBIA-WELLS DAM08-08-2022INFLOW (KAF)199402004999
42RRHW1COLUMBIA-ROCKY REACH DAM08-08-2022INFLOW (KAF)202332044299
43WANW1COLUMBIA-WANAPUM DAM08-08-2022INFLOW (KAF)205372081299
44SWAI1SNAKE-BELOW SWAN FALLS08-08-2022DISCHARGE (KAF)1717174299
45MCDW1COLUMBIA-MCNARY DAM08-08-2022INFLOW (KAF)265052665899
46MONO3NF JOHN DAY-AT MONUMENT08-08-2022DISCHARGE (KAF)333399
47MODO3DESCHUTES-AT MOODY NR BIGGS08-08-2022DISCHARGE (KAF)1130113999
48CHJW1COLUMBIA-CHIEF JOSEPH DAM08-08-2022INFLOW (KAF)1947219498100
49CLFW1NACHES-NEAR CLIFFDEL08-08-2022DISCHARGE (KAF)8383100
50SHYI1SNAKE-NEAR SHELLEY08-08-2022DISCHARGE (KAF)962963100
51WEII1SNAKE-AT WEISER08-08-2022DISCHARGE (KAF)25642552100
52ANAW1SNAKE-NEAR ANATONE08-08-2022DISCHARGE (KAF)38483848100
53BONO3COLUMBIA-BONNEVILLE DAM08-08-2022INFLOW (KAF)2835528404100
54CFMM8FLATHEAD-AT COLUMBIA FALLS08-08-2022DISCHARGE (KAF)10371025101
55LLKW1SPOKANE-AT LONGLAKE08-08-2022INFLOW (KAF)628622101
56PIHI1PORTNEUF-AT POCATELLO08-08-2022DISCHARGE (KAF)3030101
57LGDW1SNAKE-LOWER GRANITE DAM08-08-2022INFLOW (KAF)53925324101
58LGSW1SNAKE-LITTLE GOOSE DAM08-08-2022INFLOW (KAF)53925336101
59LMNW1SNAKE-LOWER MONUMENTAL DAM08-08-2022INFLOW (KAF)54075338101
60IHDW1SNAKE-ICE HARBOR DAM08-08-2022INFLOW (KAF)54075350101
61SERO3JOHN DAY-AT SERVICE CK08-08-2022DISCHARGE (KAF)6363101
62JDAO3COLUMBIA-JOHN DAY DAM08-08-2022INFLOW (KAF)2710026923101
63TDAO3COLUMBIA-THE DALLES DAM08-08-2022INFLOW (KAF)2781327539101
64HHWM8SF FLATHEAD-HUNGRY HORSE DAM08-08-2022INFLOW (KAF)210207102
65RCCM8ROCK CREEK-NEAR CLINTON08-08-2022DISCHARGE (KAF)5957102
66CSDI1NF PAYETTE-CASCADE DAM08-08-2022INFLOW (KAF)6866103
67WSRI1WEISER-NEAR WEISER08-08-2022DISCHARGE (KAF)4342103
68DRMM8CLARK FORK-NR DRUMMOND08-08-2022DISCHARGE (KAF)115110105
69PRTI1PRIEST-NEAR PRIEST RIVER08-08-2022DISCHARGE (KAF)194185105
70GCDW1COLUMBIA-GRAND COULEE DAM08-08-2022INFLOW (KAF)2006319088105
71SIFI1SNAKE-AB EAGLE ROCK NR IDAHO FALLS08-08-2022DISCHARGE (KAF)1039993105
72BRNI1SNAKE-BROWNLEE DAM08-08-2022INFLOW (KAF)27432623105
73NOXM8CLARK FORK-NOXON RAPIDS DAM08-08-2022INFLOW (KAF)27112554106
74CABI1CLARK FORK-CABINET GORGE DAM08-08-2022INFLOW (KAF)29842812106
75WGCM8MF FLATHEAD-NEAR WEST GLACIER08-08-2022DISCHARGE (KAF)207192108
76ARDW1ENTIAT-NEAR ARDENVOIR08-08-2022DISCHARGE (KAF)2826108
77KADW1KACHESS-KACHESS DAM08-08-2022INFLOW (KAF)3532108
78UMTW1YAKIMA-AT UMTANUM08-08-2022DISCHARGE (KAF)451419108
79FCFM8NF FLATHEAD-NEAR COLUMBIA FALLS08-08-2022DISCHARGE (KAF)257236109
80ALFW1PEND OREILLE-ALBENI FALLS DAM08-08-2022INFLOW (KAF)32252969109
81PATW1METHOW-NEAR PATEROS08-08-2022DISCHARGE (KAF)115106109
82SNAI1SNAKE-AT BLACKFOOT08-08-2022DISCHARGE (KAF)680627109
83LWRI1LITTLE WOOD-LITTLE WOOD DAM08-08-2022INFLOW (KAF)1211109
84TNAW1TEANAWAY-BELOW FORKS08-08-2022DISCHARGE (KAF)1514110
85LYDM8KOOTENAI-LIBBY DAM08-08-2022INFLOW (KAF)14331295111
86LEOI1KOOTENAI-AT LEONIA08-08-2022DISCHARGE (KAF)25942333111
87SPDI1CLEARWATER-AT SPALDING08-08-2022DISCHARGE (KAF)15531403111
88REXI1HENRYS FORK-AT REXBURG08-08-2022DISCHARGE (KAF)382341112
89JLKW4SNAKE-JACKSON LAKE AT DAM08-08-2022INFLOW (KAF)134120112
90GIBO3UMATILLA-NEAR GIBBON08-08-2022DISCHARGE (KAF)1514112
91IPDI1HENRYS FORK-ISLAND PARK DAM08-08-2022INFLOW (KAF)136120113
92BFTI1SNAKE-NEAR BLACKFOOT08-08-2022DISCHARGE (KAF)690610113
93AFRI1SNAKE-AMERICAN FALLS RESERVOIR08-08-2022INFLOW (KAF)13291176113
94RILW1TIETON-RIMROCK LAKE NEAR RIMROCK08-08-2022INFLOW (KAF)7162114
95DLGM8CLARK FORK-AT DEER LODGE08-08-2022DISCHARGE (KAF)4841117
96EMMI1PAYETTE-NEAR EMMETT08-08-2022DISCHARGE (KAF)294252117
97BUDW1BUMPING-BUMPING LAKE DAM08-08-2022INFLOW (KAF)2925118
98UNDW1WHITE SALMON-NEAR UNDERWOOD08-08-2022DISCHARGE (KAF)181154118
99PDTO3UMATILLA-AT PENDLETON08-08-2022DISCHARGE (KAF)2319119
100PESW1WENATCHEE-AT PESHASTIN08-08-2022DISCHARGE (KAF)292242121
101ARAI1SF BOISE-ANDERSON RANCH DAM08-08-2022INFLOW (KAF)7965122
102TONW1OKANOGAN-NEAR TONASKET08-08-2022DISCHARGE (KAF)334265126
103CLUW1CLE ELUM-CLE ELUM LAKE08-08-2022INFLOW (KAF)10482126
104PITW1KLICKITAT-NEAR PITT08-08-2022DISCHARGE (KAF)236186127
105HODO3HOOD-NEAR TUCKER BRIDGE08-08-2022DISCHARGE (KAF)139109127
106CHDW1CHELAN-LAKE CHELAN DAM08-08-2022INFLOW (KAF)234178131
107WRMO3MALHEUR-WARM SPRINGS DAM08-08-2022INFLOW (KAF)1310131
108KEDW1YAKIMA-KEECHELUS LAKE08-08-2022INFLOW (KAF)4936135
109TCHW1WALLA WALLA-NEAR TOUCHET08-08-2022DISCHARGE (KAF)3722166
110UMAO3UMATILLA-NEAR UMATILLA08-08-2022DISCHARGE (KAF)7543174
111MYKO3MCKAY CREEK-NEAR PILOT ROCK08-08-2022DISCHARGE (KAF)42203
112BULO3BULLY CREEK-BULLY CREEK DAM08-08-2022INFLOW (KAF)10309
113BFEI1KOOTENAI-AT BONNERS FERRY08-08-2022STAGE (FT)MMM
114HOPI1PEND OREILLE-PEND OREILLE LAKE NR HOPE08-08-2022LAKE ELEVATION (FT)MMM
115SJMI1ST JOE-AT ST MARIES08-08-2022STAGE (FT)MMM